Weather in Selino

Russia / Kostroma Oblast     58°50′53″N   45°09′45″E
temp.,
°C
wind,
m/s
gust,
m/s
humid.,
%
clouds,
%
prec.,
mm/h
press.,
hPa
HPBL,
m
14 april, wed
wed1400:00+6s2109685 0.0 1026200
03:00+5s2119057 0.0 1026201
06:00+6ssw2108891 0.0 1026189
09:00+12ssw496774 0.0 1025319
12:00+16s485395 0.0 1023798
15:00+17s485176 0.0 10221234
18:00+14s3965100 0.0 1021257
21:00+9s31084100 0.0 1021195
15 april, thu
thu1500:00+8ssw21083100 0.0 1020196
03:00+7sw2585100 0.0 101978
06:00+6w1283100 0.0 101920
09:00+11n22706 0.0 1019384
12:00+7nne6884100 0.0 1021466
15:00+5nne51283100 0.0 1023595
18:00+4ne41192100 0.2 1025570
21:00+4nne31189100 0.3 1026641
16 april, fri
fri1600:00+2ne41271100 0.0 1027530
03:00+1ne3117638 0.0 1028365
06:00+1ne311755 0.0 1029404
09:00+5ene46515 0.0 1030807
12:00+8ne35415 0.0 10291172
15:00+9ne34375 0.0 10291337
18:00+8ne254829 0.0 1029199
21:00+3nne26695 0.0 1030115
17 april, sat
sat1700:00+2nne22726 0.0 103134
03:00+1n22755 0.0 103133
06:00+1n25720 0.0 1032136
09:00+7n24505 0.0 1031737
12:00+10nnw464688 0.0 10311836
15:00+11nnw564160 0.0 10301876
18:00+9n47508 0.0 10301055
21:00+4n29705 0.0 1032258
18 april, sun
sun1800:00+2n27805 0.0 1033174
03:00+1n24831 0.0 103488
06:00+2nnw26810 0.0 1034188
09:00+7n35595 0.0 1034851
12:00+10n354785 0.0 10331747
15:00+7nne464399 0.0 10351823
18:00+8ne2462100 0.0 1034228
21:00+6ene1172100 0.0 103519